カタログに戻る

SL-8 DEB *

運用中LEO
NORAD 3745·DEBRIS·🇷🇺 Russia

打ち上げ Mar 15, 1965 から Baikonur Cosmodrome

Loading…

次のパス (今後24時間)

TLE

最新Source: Space-Track

元期: Sep 14, 2026, 03:03 UTC

1 03745U 65020ET  26257.12771990 -.00000017  00000-0  48859-3 0  9996
2 03745  56.0163 154.6720 0169921  77.0421  67.4060 12.51041748652117

AllMySatでSL-8 DEB *をリアルタイム追跡

Download on the App Store